Accueil
METAR-TAF:

METAR-TAF

Aéroports :

Fort Richardson, Alaska, États-Unis

latitude: 61-15-45N, longitude: 149-39-17W, altitude: 115 m

Observation

Le bulletin a été fait il y a 38 minutes, à 21:58 UTC
Vent calme
Température -9°C
Humidité 85%
Pression 1004 hPa
Visibilité: 11.3 km
Ciel couvert à une hauteur de 700 ft
(faible) granules de glace

METAR: PAFR 222158Z AUTO 00000KT 7SM -PL OVC007 M09/M11 A2966 RMK AO2 SLP057 P0000 T10931108 FZRANO $

Heure: 13:36 (22:36 UTC)


TAF: absent

Observations et prévisions météorologiques de plus de 4000 aéroports (messages METAR et TAF).

Les stations disponibles sont représentées par des disques jaunes et rouges sur la carte.

Passer la souris dessus pour voir le nom de la station.

Cliquer dessus pour voir les observations et prévisions météorologiques.

Pour changer de carte: cliquez sur les boutons verts avec une croix noire pour zoomer, sur le bouton vert avec un tiret pour effectuer un zoom arrière, ou sur les flèches vertes pour les cartes adjacentes.


METAR-TAF: